This demonstration page uses our WeatherBlox Daily Observations layout. Learn more.

Left ArrowRight Arrow

41.86663, -103.66717

Hourly Observations for April 4, 2016

Temp ( °F °C ) Dew Point ( °F °C ) Humidity (%) Winds ( mph kmh ) Pressure ( in mb ) Visibility ( mi km ) Precip ( " mm )
12:53 am 00:53 Clear 43 6.1 32 undefined 65 65 N N/A 30.07 1018 10 16 N/A
1:53 am 01:53 Clear 39 3.9 32 undefined 76 76 NNE 10 17 30.09 1019 10 16 N/A
2:53 am 02:53 Clear 34 1.1 30 -1.1 85 85 NNW 7 11 30.11 1020 10 16 N/A
3:53 am 03:53 Clear 34 1.1 30 -1.1 85 85 N 8 13 30.11 1020 10 16 N/A
4:53 am 04:53 Clear 33 0.6 28 -2.2 82 82 N N/A 30.12 1020 10 16 N/A
5:53 am 05:53 Partly Cloudy 34 1.1 29 -1.7 82 82 undefined N/A 30.12 1020 10 16 N/A
6:53 am 06:53 Sunny 33 0.6 28 -2.2 82 82 E 3 6 30.14 1021 10 16 N/A
7:53 am 07:53 Mostly Cloudy 40 4.4 34 1.1 79 79 E 7 11 30.13 1020 10 16 N/A
8:53 am 08:53 Mostly Sunny 46 7.8 35 1.7 66 66 ESE 8 13 30.13 1020 10 16 N/A
9:53 am 09:53 Sunny 54 12.2 38 3.3 55 55 ESE 6 9 30.11 1020 10 16 N/A
10:53 am 10:53 Sunny 60 15.6 36 2.2 41 41 N N/A 30.09 1019 10 16 N/A
11:53 am 11:53 Sunny 66 18.9 36 2.2 33 33 VRB 3 6 30.06 1018 10 16 N/A
12:53 pm 12:53 Sunny 70 21.1 35 1.7 28 28 SW 7 11 30.01 1016 10 16 N/A
1:37 pm 13:37 Sunny 73 22.8 30 -1.1 20 20 W 17 28 29.83 1010 10 16 N/A
1:53 pm 13:53 Sunny 74 23.3 29 -1.7 19 19 W 15 24 29.99 1016 10 16 N/A
2:53 pm 14:53 Sunny 74 23.3 30 -1.1 20 20 W 22 35 29.98 1015 10 16 N/A
3:53 pm 15:53 Sunny 74 23.3 27 -2.8 17 17 W 20 31 29.97 1015 10 16 N/A
4:53 pm 16:53 Sunny 74 23.3 26 -3.3 17 17 WNW 15 24 29.95 1014 10 16 N/A
5:53 pm 17:53 Sunny 73 22.8 27 -2.8 18 18 W 8 13 29.94 1014 10 16 N/A
6:53 pm 18:53 Mostly Sunny 68 20 26 -3.3 21 21 SW 3 6 29.96 1014 10 16 N/A
7:53 pm 19:53 Mostly Cloudy 62 16.7 34 1.1 35 35 S 3 6 29.95 1014 10 16 N/A
8:53 pm 20:53 Clear 59 15 34 1.1 39 39 SSE 8 13 29.94 1014 10 16 N/A
9:53 pm 21:53 Clear 51 10.6 35 1.7 54 54 E 6 9 29.93 1014 10 16 N/A
10:53 pm 22:53 Mostly Clear 52 11.1 37 2.8 57 57 E 7 11 29.91 1013 10 16 N/A
11:53 pm 23:53 Cloudy 63 17.2 31 -0.6 30 30 WNW 14 22 29.87 1011 10 16 N/A

Powered by AerisWeather